Fort Worth Alliance, TX

4:04 PM CDT on May 29, 2017 (GMT -0500)
Fort Worth Alliance

Weather History for KAFW - January, 2013

Change the Weather History Date:

Thursday, January 10, 2013

  Actual Average Record
Temperature  
Mean Temperature 50 °F -  
Max Temperature 55 °F 54 °F 77 °F (2017)
Min Temperature 46 °F 33 °F 18 °F (1999)
Degree Days  
Heating Degree Days 14    
Moisture  
Dew Point 49 °F    
Average Humidity 86    
Maximum Humidity 100    
Minimum Humidity 67    
Precipitation  
Precipitation 0.04 in - - ()
Sea Level Pressure  
Sea Level Pressure 29.93 in    
Wind  
Wind Speed 9 mph (South)    
Max Wind Speed 14 mph    
Max Gust Speed 24 mph    
Visibility 8 miles    
Events      
Averages and records for this station are not official NWS values.
T = Trace of Precipitation, MM = Missing Value Source: NWS Daily Summary

Daily Weather History Graph

Daily Weather History Graph

Search for Another Location

Airport or City:

Trip Planner

Search our weather history database for the weather conditions in past years. The results will help you decide how hot, cold, wet, or windy it might be!

Date:

Astronomy

Jan. 10, 2013 Rise Set
Actual Time 7:32 AM CST 5:41 PM CST
Civil Twilight 7:05 AM CST 6:08 PM CST
Nautical Twilight 6:35 AM CST 6:38 PM CST
Astronomical Twilight 6:05 AM CST 7:08 PM CST
Moon 6:14 AM CST (1/10) 4:49 PM CST (1/10)
Length of Visible Light 11h 02m
Length of Day
10h 08m
Waning Crescent, 2% of the Moon is Illuminated
Jan 10
Waning Crescent
Jan 11
New
Jan 18
First Quarter
Jan 26
Full
Feb 3
Last Quarter

Hourly Weather History & Observations

Time (CST) Temp. Dew Point Humidity Pressure Visibility Wind Dir Wind Speed Gust Speed Precip Events Conditions
12:29 AM 55.4 °F 53.6 °F 94% 29.98 in 1.5 mi East 9.2 mph - 0.01 in   Light Drizzle
12:53 AM 55.0 °F 54.0 °F 96% 29.98 in 1.5 mi East 10.4 mph - 0.01 in   Light Drizzle
1:53 AM 55.0 °F 54.0 °F 96% 29.96 in 1.5 mi ESE 9.2 mph - 0.00 in   Light Drizzle
2:53 AM 55.0 °F 54.0 °F 96% 29.95 in 1.5 mi SE 8.1 mph - 0.01 in   Light Drizzle
2:57 AM 55.4 °F 53.6 °F 94% 29.96 in 3.0 mi SE 8.1 mph - 0.01 in   Light Drizzle
3:53 AM 55.0 °F 54.0 °F 96% 29.94 in 3.0 mi SE 3.5 mph - 0.02 in   Light Drizzle
4:53 AM 55.0 °F 55.0 °F 100% 29.91 in 3.0 mi SE 8.1 mph - 0.00 in   Light Drizzle
5:20 AM 55.4 °F 55.4 °F 100% 29.91 in 5.0 mi South 6.9 mph - 0.00 in   Light Drizzle
5:37 AM 55.4 °F 55.4 °F 100% 29.91 in 5.0 mi SSE 8.1 mph - 0.00 in   Overcast
5:53 AM 55.9 °F 55.0 °F 97% 29.91 in 5.0 mi South 6.9 mph - 0.00 in   Overcast
6:23 AM 55.4 °F 53.6 °F 94% 29.91 in 6.0 mi SSW 6.9 mph - N/A   Overcast
6:53 AM 54.0 °F 53.1 °F 97% 29.92 in 7.0 mi SSW 13.8 mph 19.6 mph N/A   Overcast
7:35 AM 51.8 °F 50.0 °F 94% 29.93 in 10.0 mi SW 10.4 mph - N/A   Scattered Clouds
7:53 AM 51.1 °F 48.9 °F 92% 29.94 in 10.0 mi SW 6.9 mph - N/A   Partly Cloudy
8:53 AM 53.1 °F 48.9 °F 86% 29.93 in 10.0 mi South 5.8 mph - N/A   Mostly Cloudy
9:53 AM 54.0 °F 48.0 °F 80% 29.94 in 10.0 mi SW 10.4 mph 19.6 mph N/A   Mostly Cloudy
10:12 AM 53.6 °F 46.4 °F 77% 29.95 in 10.0 mi SSW 12.7 mph 24.2 mph N/A   Overcast
10:53 AM 53.1 °F 46.0 °F 77% 29.94 in 10.0 mi SW 12.7 mph 18.4 mph N/A   Mostly Cloudy
11:53 AM 54.0 °F 46.0 °F 75% 29.93 in 10.0 mi SSW 11.5 mph 21.9 mph N/A   Mostly Cloudy
12:53 PM 53.1 °F 45.0 °F 74% 29.91 in 10.0 mi SSW 11.5 mph - N/A   Overcast
1:53 PM 55.0 °F 45.0 °F 69% 29.90 in 10.0 mi SSW 6.9 mph - N/A   Mostly Cloudy
2:53 PM 55.0 °F 45.0 °F 69% 29.91 in 10.0 mi SSW 11.5 mph 19.6 mph N/A   Overcast
3:17 PM 55.4 °F 44.6 °F 67% 29.92 in 10.0 mi SW 9.2 mph 18.4 mph N/A   Overcast
3:43 PM 55.4 °F 44.6 °F 67% 29.92 in 10.0 mi SW 11.5 mph - N/A   Overcast
3:53 PM 55.0 °F 45.0 °F 69% 29.91 in 10.0 mi SW 12.7 mph - N/A   Overcast
4:53 PM 54.0 °F 46.0 °F 75% 29.93 in 10.0 mi South 9.2 mph - N/A   Overcast
5:53 PM 53.1 °F 46.0 °F 77% 29.94 in 10.0 mi South 6.9 mph - N/A   Mostly Cloudy
6:53 PM 52.0 °F 46.0 °F 80% 29.94 in 10.0 mi South 6.9 mph - N/A   Mostly Cloudy
7:53 PM 48.0 °F 44.1 °F 86% 29.94 in 10.0 mi South 5.8 mph - N/A   Clear
8:53 PM 48.9 °F 45.0 °F 86% 29.94 in 10.0 mi South 8.1 mph - N/A   Clear
9:53 PM 48.9 °F 45.0 °F 86% 29.93 in 10.0 mi SSE 9.2 mph - N/A   Clear
10:53 PM 46.9 °F 44.1 °F 90% 29.95 in 10.0 mi South 6.9 mph - N/A   Clear
11:53 PM 46.9 °F 44.1 °F 90% 29.94 in 10.0 mi South 4.6 mph - N/A   Clear